Regional Weather Roundup
Issued by NWS

Home | Current Version | Previous Version | Text Only | Print | Product List | Glossary On
Versions: 1 2 3 4 5 6 7 8 9 10 11 12 13 14 15 16 17 18 19 20 21 22 23 24 25 26 27 28 29 30 31 32 33 34 35 36 37 38 39 40 41 42 43 44 45 46 47 48 49 50
000
ASUS43 KMKX 060721
RWRWI

WISCONSIN REGIONAL WEATHER ROUNDUP
NATIONAL WEATHER SERVICE MILWAUKEE/SULLIVAN WI
200 AM CDT MON JUL 06 2015

NOTE: "FAIR" INDICATES FEW OR NO CLOUDS BELOW 12,000 FEET WITH NO
SIGNIFICANT WEATHER AND/OR OBSTRUCTIONS TO VISIBILITY.

WIZ001-002-006>008-014>016-023>028-060800-
NORTHWEST WISCONSIN

CITY           SKY/WX    TMP DP  RH WIND       PRES   REMARKS
SUPERIOR ARPT  CLOUDY    66  65  99 SW5       29.82F
ASHLAND        RAIN      67  67 100 S6        29.84F FOG
HAYWARD        HVY RAIN  67  65  93 E5        29.89F FOG
SIREN          HVY RAIN  67  66  96 SE7       29.86F
CUMBERLAND     TSTM      68  64  88 N14G20    29.89R
RICE LAKE      CLOUDY    70  66  88 CALM      29.87F
CHETEK         HVY RAIN  69  68  98 CALM      29.87F
LADYSMITH      CLOUDY    70  65  84 S3        29.90F
EAU CLAIRE     CLOUDY    73  65  75 SE5       29.84F
MENOMONIE      CLOUDY    72  67  85 E3        29.84F THUNDER
NEW RICHMOND   HVY RAIN  71  69  94 SE6       29.86R
OSCEOLA        HVY RAIN  71  71 100 SE9       29.85S
$$

WIZ003>005-009-010-017-018-060800-
NORTH CENTRAL WISCONSIN

CITY           SKY/WX    TMP DP  RH WIND       PRES   REMARKS
MANITOWISH WTR CLOUDY    69  65  87 SW8       29.90R
ARBOR VITAE    CLOUDY    72  66  82 SW10      29.91S
WOODRUFF       CLOUDY    72  66  82 SW10      29.91S
RHINELANDER    CLOUDY    69  63  81 SW12G20   29.93F
EAGLE RIVER    CLOUDY    70  61  73 SW8G16    29.91F
LAND O LAKES   CLOUDY    70  63  77 SW7       29.91F
PHILLIPS       CLOUDY    69  64  84 SW8       29.89F
TOMAHAWK       CLOUDY    66  62  86 S3        29.92F
MEDFORD        CLOUDY    68  64  86 S10       29.91F
MERRILL        CLOUDY    69  65  85 S5        29.93F
$$

WIZ029-030-035-036-043>047-060800-
CENTRAL WISCONSIN

CITY           SKY/WX    TMP DP  RH WIND       PRES   REMARKS
WAUSAU         MOCLDY    71  64  78 S7        29.92F
MOSINEE        MOCLDY    66  64  94 S7        29.95F
MARSHFIELD     CLOUDY    68  62  81 S8        29.92F
STEVENS POINT  MOCLDY    67  63  85 S7        29.96F
WAUPACA        PTCLDY    69  66  90 S3        29.96S
WAUTOMA        PTCLDY    65  65 100 CALM      29.96S
WISC RAPIDS    MOCLDY    69  63  81 S5        29.95F
CAMP DOUGLAS   PTCLDY    70  70 100 SE6       29.92F
$$

WIZ011>013-019>022-031-037>040-048>050-060800-
NORTHEAST WISCONSIN

CITY           SKY/WX    TMP DP  RH WIND       PRES   REMARKS
ANTIGO         CLOUDY    66  63  91 S10       29.96S
SHAWANO        PTCLDY    70  64  80 CALM      29.96R
OCONTO         PTCLDY    67  65  94 S3        29.95R
STURGEON BAY   PTCLDY    64  57  77 S10       29.99S
GREEN BAY      PTCLDY    67  62  84 S5        29.97R HAZE
MANITOWOC      CLEAR     62  59  90 MISG      29.99R
APPLETON       CLEAR     68  61  77 S7        29.97S
CLINTONVILLE   PTCLDY    68  63  83 S6        29.96R
OSHKOSH        CLEAR     66  61  84 S7        29.97R
$$

WIZ032>034-041-042-053>061-060800-
SOUTHWEST WISCONSIN

CITY           SKY/WX    TMP DP  RH WIND       PRES   REMARKS
LA CROSSE      MOCLDY    74  67  78 S13       29.87F
SPARTA         MOCLDY    71  63  76 S7        29.92F
VIROQUA        MOCLDY    69  66  88 S9        29.93F
BOSCOBEL       CLEAR     72  65  78 S5        29.94S HAZE
PRAIRIE DU CHI PTCLDY    72  64  77 E6        29.92R
PLATTEVILLE    CLEAR     67  65  92 SE8       29.97R
$$

WIZ056-057-062-063-064-067-068-060800-
SOUTH CENTRAL WISCONSIN

CITY           SKY/WX    TMP DP  RH WIND       PRES   REMARKS
REEDSBURG      CLEAR     69  64  86 S5        29.96R
BARABOO/DELLS  PTCLDY    68  62  81 SW7       29.97R
LONE ROCK      CLEAR     70  63  78 CALM      29.96R
MINERAL POINT  CLEAR     66  63  88 SE5       29.97R FOG
MADISON        MOCLDY    72  63  73 S9        29.98R
MIDDLETON      PTCLDY    69  62  80 CALM      29.99R
WATERTOWN      CLEAR     63  63 100 CALM      29.99R
MONROE         CLEAR     66  63  88 S8        29.98R
JANESVILLE     CLEAR     66  63  88 SE3       29.99R
$$

WIZ051-052-058>065-066-070>072-060800-
SOUTHEAST WISCONSIN

CITY           SKY/WX    TMP DP  RH WIND       PRES   REMARKS
MILWAUKEE      PTCLDY    67  59  75 S3        30.00R
WAUKESHA       CLEAR     63  59  88 CALM      30.02R
MILWAUKEE/TIMM CLEAR     64  57  77 S3        30.01R
RACINE         CLEAR     66  59  78 SW5       30.02R
BURLINGTON     CLEAR     60  59  96 CALM      30.00R
KENOSHA        CLEAR     64  60  87 SW5       30.01R
FOND DU LAC    CLEAR     69  62  78 SW6       29.99R
SHEBOYGAN      CLEAR     60  58  92 CALM      29.99R FOG
WEST BEND      CLEAR     63  59  88 CALM      30.00R
JUNEAU         CLEAR     65  62  88 SE5       30.00R
$$

LSZ147-162-060800-
LAKE SUPERIOR

STATION/POSITION TIME  TEMP    WIND        PRES    WAVE
                       AIR SEA DIR/SP/G            HT/PER
                 (UTC) (F)     (DEG/KT/KT) (MB)    (FT/S)
W MID LAKE BUOY  0650   59 39  170/ 10/ 12 1009.1R   1
DEVILS ISLAND    0700   64     230/ 15/ 17 1009.7R
PORT WING        0600   67     220/  7/  9 1011.2R
SAXON HARBOR     0600   68     290/  9/ 20 1010.5
$$

LMZ867-665-643>646-060800-
LAKE MICHIGAN

STATION/POSITION TIME  TEMP    WIND        PRES    WAVE
                       AIR SEA DIR/SP/G            HT/PER
                 (UTC) (F)     (DEG/KT/KT) (MB)    (FT/S)
CHAMBERS ISLAND  0600   70     170/  6/ 13 1013.2F
S GREEN BAY BUOY 0500   71 69  180/ 14/ 19 1014.8
N MID LAKE BUOY  0650   57 52  210/ 14/ 16 1014.4R   2/ 4
NORTHPORT PIER   0600   66     160/  7/ 18 1013.2F
SISTER BAY       0614   68     180/ 13/ 17   N/A
KEWAUNEE LAKESHO 0600   63     190/  6/  8 1013.9R
SHEBOYGAN LAKESH 0700   65     190/  6/  6 1015.9R
PORT WASHINGTON  0640   64     170/  2/  4 1015.9R
ATWATER BUOY     0700   64 59  150/  6/  8 1017.0R
MILWAUKEE LAKESH 0700   69     200/  6/  7   N/A
KENOSHA   LAKESH 0700   68     230/  5/  6 1015.9R
$$

TC  - TEMPERATURE IN CELSIUS
VSB - VISIBILITY IN STATUTE MILES
WCI - WIND CHILL INDEX
HX  - HEAT INDEX




USA.gov is the U.S. government's official web portal to all federal, state and local government web resources and services.